{"data":{"norad_id":64937,"epoch":"2026-09-20T11:54:29.248704Z","epoch_age_seconds":124548,"freshness":"FRESH","line1":"1 64937U 25158F   26263.49617186  .00011270  00000+0  35077-3 0  9996","line2":"2 64937  97.2855 121.7721 0001892  83.6170 276.5289 15.33454223 64701","mean_motion":15.33454223,"eccentricity":0.0001892,"inclination_deg":97.2855,"raan_deg":121.7721,"arg_perigee_deg":83.617,"mean_anomaly_deg":276.5289,"bstar":0.00035077,"rev_number":6470,"period_min":93.905639855543,"perigee_km":464.22091435943,"apogee_km":466.81055255377,"semimajor_km":6843.6527334566,"source":"CELESTRAK","updated_at":"2026-09-21T09:00:35.486926Z"}}